Year,Month,Day,Hour,Minute,Value (Times are PST for temperature in C)
2013,07,20,00,00,17.20
2013,07,20,00,01,17.10
2013,07,20,00,02,17.10
2013,07,20,00,03,17.10
2013,07,20,00,04,17.10
2013,07,20,00,05,17.00
2013,07,20,00,06,17.00
2013,07,20,00,07,16.90
2013,07,20,00,08,16.90
2013,07,20,00,09,16.80
2013,07,20,00,10,16.80
2013,07,20,00,11,16.80
2013,07,20,00,12,16.70
2013,07,20,00,13,16.70
2013,07,20,00,14,16.60
2013,07,20,00,15,16.60
2013,07,20,00,16,16.60
2013,07,20,00,17,16.50
2013,07,20,00,18,16.50
2013,07,20,00,19,16.50
2013,07,20,00,20,16.50
2013,07,20,00,21,16.50
2013,07,20,00,22,16.50
2013,07,20,00,23,16.50
2013,07,20,00,24,16.50
2013,07,20,00,25,16.40
2013,07,20,00,26,16.40
2013,07,20,00,27,16.40
2013,07,20,00,28,16.40
2013,07,20,00,29,16.40
2013,07,20,00,30,16.40
2013,07,20,00,31,16.40
2013,07,20,00,32,16.40
2013,07,20,00,33,16.40
2013,07,20,00,34,16.40
2013,07,20,00,35,16.40
2013,07,20,00,36,16.40
2013,07,20,00,37,16.40
2013,07,20,00,38,16.40
2013,07,20,00,39,16.40
2013,07,20,00,40,16.30
2013,07,20,00,41,16.30
2013,07,20,00,42,16.30
2013,07,20,00,43,16.30
2013,07,20,00,44,16.30
2013,07,20,00,45,16.30
2013,07,20,00,46,16.30
2013,07,20,00,47,16.30
2013,07,20,00,48,16.30
2013,07,20,00,49,16.20
2013,07,20,00,50,16.20
2013,07,20,00,51,16.20
2013,07,20,00,52,16.20
2013,07,20,00,53,16.20
2013,07,20,00,54,16.10
2013,07,20,00,55,16.10
2013,07,20,00,56,16.10
2013,07,20,00,57,16.10
2013,07,20,00,58,16.10
2013,07,20,00,59,16.10
2013,07,20,01,00,16.10
2013,07,20,01,01,16.10
2013,07,20,01,02,16.10
2013,07,20,01,03,16.10
2013,07,20,01,04,16.00
2013,07,20,01,05,16.00
2013,07,20,01,06,16.00
2013,07,20,01,07,15.90
2013,07,20,01,08,15.90
2013,07,20,01,09,15.90
2013,07,20,01,10,15.90
2013,07,20,01,11,15.80
2013,07,20,01,12,15.80
2013,07,20,01,13,15.80
2013,07,20,01,14,15.80
2013,07,20,01,15,15.80
2013,07,20,01,16,15.80
2013,07,20,01,17,15.80
2013,07,20,01,18,15.80
2013,07,20,01,19,15.80
2013,07,20,01,20,15.70
2013,07,20,01,21,15.80
2013,07,20,01,22,15.80
2013,07,20,01,23,15.70
2013,07,20,01,24,15.70
2013,07,20,01,25,15.70
2013,07,20,01,26,15.70
2013,07,20,01,27,15.70
2013,07,20,01,28,15.70
2013,07,20,01,29,15.70
2013,07,20,01,30,15.70
2013,07,20,01,31,15.60
2013,07,20,01,32,15.60
2013,07,20,01,33,15.60
2013,07,20,01,34,15.60
2013,07,20,01,35,15.60
2013,07,20,01,36,15.60
2013,07,20,01,37,15.60
2013,07,20,01,38,15.60
2013,07,20,01,39,15.50
2013,07,20,01,40,15.50
2013,07,20,01,41,15.50
2013,07,20,01,42,15.50
2013,07,20,01,43,15.50
2013,07,20,01,44,15.50
2013,07,20,01,45,15.50
2013,07,20,01,46,15.50
2013,07,20,01,47,15.40
2013,07,20,01,48,15.40
2013,07,20,01,49,15.40
2013,07,20,01,50,15.40
2013,07,20,01,51,15.40
2013,07,20,01,52,15.40
2013,07,20,01,53,15.30
2013,07,20,01,54,15.30
2013,07,20,01,55,15.30
2013,07,20,01,56,15.30
2013,07,20,01,57,15.30
2013,07,20,01,58,15.30
2013,07,20,01,59,15.30
2013,07,20,02,00,15.30
2013,07,20,02,01,15.30
2013,07,20,02,02,15.30
2013,07,20,02,03,15.30
2013,07,20,02,04,15.30
2013,07,20,02,05,15.30
2013,07,20,02,06,15.30
2013,07,20,02,07,15.30
2013,07,20,02,08,15.30
2013,07,20,02,09,15.30
2013,07,20,02,10,15.30
2013,07,20,02,11,15.30
2013,07,20,02,12,15.30
2013,07,20,02,13,15.20
2013,07,20,02,14,15.20
2013,07,20,02,15,15.20
2013,07,20,02,16,15.20
2013,07,20,02,17,15.20
2013,07,20,02,18,15.20
2013,07,20,02,19,15.10
2013,07,20,02,20,15.10
2013,07,20,02,21,15.10
2013,07,20,02,22,15.10
2013,07,20,02,23,15.10
2013,07,20,02,24,15.00
2013,07,20,02,25,15.00
2013,07,20,02,26,15.00
2013,07,20,02,27,15.00
2013,07,20,02,28,15.00
2013,07,20,02,29,15.00
2013,07,20,02,30,15.00
2013,07,20,02,31,15.00
2013,07,20,02,32,15.00
2013,07,20,02,33,15.00
2013,07,20,02,34,15.00
2013,07,20,02,35,15.00
2013,07,20,02,36,15.00
2013,07,20,02,37,15.00
2013,07,20,02,38,15.00
2013,07,20,02,39,15.00
2013,07,20,02,40,15.00
2013,07,20,02,41,15.00
2013,07,20,02,42,15.00
2013,07,20,02,43,15.00
2013,07,20,02,44,15.00
2013,07,20,02,45,15.00
2013,07,20,02,46,15.00
2013,07,20,02,47,15.00
2013,07,20,02,48,15.00
2013,07,20,02,49,15.00
2013,07,20,02,50,15.00
2013,07,20,02,51,15.00
2013,07,20,02,52,15.00
2013,07,20,02,53,15.00
2013,07,20,02,54,15.00
2013,07,20,02,55,15.00
2013,07,20,02,56,15.00
2013,07,20,02,57,15.00
2013,07,20,02,58,15.00
2013,07,20,02,59,15.00
2013,07,20,03,00,15.00
2013,07,20,03,01,15.00
2013,07,20,03,02,15.00
2013,07,20,03,03,15.00
2013,07,20,03,04,15.00
2013,07,20,03,05,14.90
2013,07,20,03,06,14.90
2013,07,20,03,07,14.80
2013,07,20,03,08,14.80
2013,07,20,03,09,14.80
2013,07,20,03,10,14.80
2013,07,20,03,11,14.80
2013,07,20,03,12,14.80
2013,07,20,03,13,14.80
2013,07,20,03,14,14.80
2013,07,20,03,15,14.80
2013,07,20,03,16,14.80
2013,07,20,03,17,14.80
2013,07,20,03,18,14.80
2013,07,20,03,19,14.70
2013,07,20,03,20,14.70
2013,07,20,03,21,14.70
2013,07,20,03,22,14.70
2013,07,20,03,23,14.70
2013,07,20,03,24,14.70
2013,07,20,03,25,14.70
2013,07,20,03,26,14.70
2013,07,20,03,27,14.70
2013,07,20,03,28,14.70
2013,07,20,03,29,14.70
2013,07,20,03,30,14.70
2013,07,20,03,31,14.70
2013,07,20,03,32,14.70
2013,07,20,03,33,14.70
2013,07,20,03,34,14.70
2013,07,20,03,35,14.70
2013,07,20,03,36,14.70
2013,07,20,03,37,14.70
2013,07,20,03,38,14.60
2013,07,20,03,39,14.60
2013,07,20,03,40,14.60
2013,07,20,03,41,14.60
2013,07,20,03,42,14.60
2013,07,20,03,43,14.60
2013,07,20,03,44,14.60
2013,07,20,03,45,14.60
2013,07,20,03,46,14.60
2013,07,20,03,47,14.60
2013,07,20,03,48,14.60
2013,07,20,03,49,14.60
2013,07,20,03,50,14.60
2013,07,20,03,51,14.60
2013,07,20,03,52,14.60
2013,07,20,03,53,14.60
2013,07,20,03,54,14.60
2013,07,20,03,55,14.50
2013,07,20,03,56,14.50
2013,07,20,03,57,14.50
2013,07,20,03,58,14.40
2013,07,20,03,59,14.40
2013,07,20,04,00,14.40
2013,07,20,04,01,14.40
2013,07,20,04,02,14.30
2013,07,20,04,03,14.30
2013,07,20,04,04,14.30
2013,07,20,04,05,14.30
2013,07,20,04,06,14.20
2013,07,20,04,07,14.20
2013,07,20,04,08,14.20
2013,07,20,04,09,14.20
2013,07,20,04,10,14.20
2013,07,20,04,11,14.20
2013,07,20,04,12,14.10
2013,07,20,04,13,14.10
2013,07,20,04,14,14.20
2013,07,20,04,15,14.20
2013,07,20,04,16,14.20
2013,07,20,04,17,14.20
2013,07,20,04,18,14.20
2013,07,20,04,19,14.20
2013,07,20,04,20,14.20
2013,07,20,04,21,14.20
2013,07,20,04,22,14.20
2013,07,20,04,23,14.20
2013,07,20,04,24,14.20
2013,07,20,04,25,14.20
2013,07,20,04,26,14.20
2013,07,20,04,27,14.20
2013,07,20,04,28,14.20
2013,07,20,04,29,14.20
2013,07,20,04,30,14.20
2013,07,20,04,31,14.20
2013,07,20,04,32,14.20
2013,07,20,04,33,14.20
2013,07,20,04,34,14.20
2013,07,20,04,35,14.20
2013,07,20,04,36,14.20
2013,07,20,04,37,14.20
2013,07,20,04,38,14.20
2013,07,20,04,39,14.20
2013,07,20,04,40,14.20
2013,07,20,04,41,14.20
2013,07,20,04,42,14.20
2013,07,20,04,43,14.20
2013,07,20,04,44,14.20
2013,07,20,04,45,14.20
2013,07,20,04,46,14.10
2013,07,20,04,47,14.10
2013,07,20,04,48,14.10
2013,07,20,04,49,14.10
2013,07,20,04,50,14.10
2013,07,20,04,51,14.10
2013,07,20,04,52,14.10
2013,07,20,04,53,14.10
2013,07,20,04,54,14.10
2013,07,20,04,55,14.10
2013,07,20,04,56,14.10
2013,07,20,04,57,14.10
2013,07,20,04,58,14.10
2013,07,20,04,59,14.10
2013,07,20,05,00,14.10
2013,07,20,05,01,14.10
2013,07,20,05,02,14.10
2013,07,20,05,03,14.10
2013,07,20,05,04,14.10
2013,07,20,05,05,14.10
2013,07,20,05,06,14.10
2013,07,20,05,07,14.10
2013,07,20,05,08,14.00
2013,07,20,05,09,14.00
2013,07,20,05,10,14.00
2013,07,20,05,11,13.90
2013,07,20,05,12,13.90
2013,07,20,05,13,13.90
2013,07,20,05,14,13.90
2013,07,20,05,15,13.90
2013,07,20,05,16,13.90
2013,07,20,05,17,13.90
2013,07,20,05,18,13.90
2013,07,20,05,19,13.90
2013,07,20,05,20,13.90
2013,07,20,05,21,13.90
2013,07,20,05,22,13.90
2013,07,20,05,23,13.90
2013,07,20,05,24,13.90
2013,07,20,05,25,13.90
2013,07,20,05,26,13.90
2013,07,20,05,27,13.90
2013,07,20,05,28,13.90
2013,07,20,05,29,13.90
2013,07,20,05,30,13.80
2013,07,20,05,31,13.80
2013,07,20,05,32,13.80
2013,07,20,05,33,13.80
2013,07,20,05,34,13.80
2013,07,20,05,35,13.80
2013,07,20,05,36,13.80
2013,07,20,05,37,13.80
2013,07,20,05,38,13.80
2013,07,20,05,39,13.80
2013,07,20,05,40,13.80
2013,07,20,05,41,13.80
2013,07,20,05,42,13.70
2013,07,20,05,43,13.70
2013,07,20,05,44,13.70
2013,07,20,05,45,13.70
2013,07,20,05,46,13.70
2013,07,20,05,47,13.70
2013,07,20,05,48,13.70
2013,07,20,05,49,13.70
2013,07,20,05,50,13.70
2013,07,20,05,51,13.70
2013,07,20,05,52,13.70
2013,07,20,05,53,13.70
2013,07,20,05,54,13.70
2013,07,20,05,55,13.70
2013,07,20,05,56,13.70
2013,07,20,05,57,13.70
2013,07,20,05,58,13.60
2013,07,20,05,59,13.60
2013,07,20,06,00,13.60
2013,07,20,06,01,13.60
2013,07,20,06,02,13.70
2013,07,20,06,03,13.70
2013,07,20,06,04,13.70
2013,07,20,06,05,13.70
2013,07,20,06,06,13.70
2013,07,20,06,07,13.70
2013,07,20,06,08,13.70
2013,07,20,06,09,13.70
2013,07,20,06,10,13.70
2013,07,20,06,11,13.70
2013,07,20,06,12,13.70
2013,07,20,06,13,13.70
2013,07,20,06,14,13.70
2013,07,20,06,15,13.70
2013,07,20,06,16,13.70
2013,07,20,06,17,13.70
2013,07,20,06,18,13.70
2013,07,20,06,19,13.70
2013,07,20,06,20,13.70
2013,07,20,06,21,13.70
2013,07,20,06,22,13.70
2013,07,20,06,23,13.70
2013,07,20,06,24,13.60
2013,07,20,06,25,13.60
2013,07,20,06,26,13.60
2013,07,20,06,27,13.60
2013,07,20,06,28,13.60
2013,07,20,06,29,13.60
2013,07,20,06,30,13.60
2013,07,20,06,31,13.60
2013,07,20,06,32,13.50
2013,07,20,06,33,13.50
2013,07,20,06,34,13.50
2013,07,20,06,35,13.50
2013,07,20,06,36,13.50
2013,07,20,06,37,13.50
2013,07,20,06,38,13.60
2013,07,20,06,39,13.60
2013,07,20,06,40,13.60
2013,07,20,06,41,13.60
2013,07,20,06,42,13.60
2013,07,20,06,43,13.60
2013,07,20,06,44,13.60
2013,07,20,06,45,13.60
2013,07,20,06,46,13.60
2013,07,20,06,47,13.60
2013,07,20,06,48,13.60
2013,07,20,06,49,13.60
2013,07,20,06,50,13.60
2013,07,20,06,51,13.60
2013,07,20,06,52,13.60
2013,07,20,06,53,13.60
2013,07,20,06,54,13.60
2013,07,20,06,55,13.60
2013,07,20,06,56,13.60
2013,07,20,06,57,13.60
2013,07,20,06,58,13.60
2013,07,20,06,59,13.70
2013,07,20,07,00,13.70
2013,07,20,07,01,13.70
2013,07,20,07,02,13.70
2013,07,20,07,03,13.70
2013,07,20,07,04,13.70
2013,07,20,07,05,13.70
2013,07,20,07,06,13.70
2013,07,20,07,07,13.70
2013,07,20,07,08,13.70
2013,07,20,07,09,13.70
2013,07,20,07,10,13.70
2013,07,20,07,11,13.70
2013,07,20,07,12,13.70
2013,07,20,07,13,13.70
2013,07,20,07,14,13.70
2013,07,20,07,15,13.70
2013,07,20,07,16,13.70
2013,07,20,07,17,13.70
2013,07,20,07,18,13.80
2013,07,20,07,19,13.80
2013,07,20,07,20,13.80
2013,07,20,07,21,13.80
2013,07,20,07,22,13.80
2013,07,20,07,23,13.80
2013,07,20,07,24,13.80
2013,07,20,07,25,13.80
2013,07,20,07,26,13.80
2013,07,20,07,27,13.90
2013,07,20,07,28,13.90
2013,07,20,07,29,13.90
2013,07,20,07,30,13.90
2013,07,20,07,31,13.90
2013,07,20,07,32,13.90
2013,07,20,07,33,13.90
2013,07,20,07,34,13.90
2013,07,20,07,35,13.90
2013,07,20,07,36,13.90
2013,07,20,07,37,13.90
2013,07,20,07,38,13.90
2013,07,20,07,39,13.90
2013,07,20,07,40,13.90
2013,07,20,07,41,13.90
2013,07,20,07,42,13.90
2013,07,20,07,43,13.90
2013,07,20,07,44,13.90
2013,07,20,07,45,13.90
2013,07,20,07,46,13.90
2013,07,20,07,47,13.90
2013,07,20,07,48,13.90
2013,07,20,07,49,13.90
2013,07,20,07,50,13.90
2013,07,20,07,51,13.90
2013,07,20,07,52,13.90
2013,07,20,07,53,13.90
2013,07,20,07,54,13.90
2013,07,20,07,55,13.90
2013,07,20,07,56,13.90
2013,07,20,07,57,13.90
2013,07,20,07,58,14.00
2013,07,20,07,59,14.00
2013,07,20,08,00,14.00
2013,07,20,08,01,14.00
2013,07,20,08,02,14.00
2013,07,20,08,03,14.00
2013,07,20,08,04,14.10
2013,07,20,08,05,14.10
2013,07,20,08,06,14.10
2013,07,20,08,07,14.10
2013,07,20,08,08,14.10
2013,07,20,08,09,14.10
2013,07,20,08,10,14.10
2013,07,20,08,11,14.10
2013,07,20,08,12,14.10
2013,07,20,08,13,14.20
2013,07,20,08,14,14.20
2013,07,20,08,15,14.20
2013,07,20,08,16,14.20
2013,07,20,08,17,14.20
2013,07,20,08,18,14.30
2013,07,20,08,19,14.30
2013,07,20,08,20,14.30
2013,07,20,08,21,14.30
2013,07,20,08,22,14.30
2013,07,20,08,23,14.30
2013,07,20,08,24,14.30
2013,07,20,08,25,14.40
2013,07,20,08,26,14.40
2013,07,20,08,27,14.40
2013,07,20,08,28,14.40
2013,07,20,08,29,14.40
2013,07,20,08,30,14.40
2013,07,20,08,31,14.50
2013,07,20,08,32,14.50
2013,07,20,08,33,14.50
2013,07,20,08,34,14.60
2013,07,20,08,35,14.60
2013,07,20,08,36,14.60
2013,07,20,08,37,14.60
2013,07,20,08,38,14.70
2013,07,20,08,39,14.70
2013,07,20,08,40,14.70
2013,07,20,08,41,14.70
2013,07,20,08,42,14.80
2013,07,20,08,43,14.80
2013,07,20,08,44,14.80
2013,07,20,08,45,14.90
2013,07,20,08,46,14.90
2013,07,20,08,47,15.00
2013,07,20,08,48,15.00
2013,07,20,08,49,15.00
2013,07,20,08,50,15.00
2013,07,20,08,51,15.00
2013,07,20,08,52,15.00
2013,07,20,08,53,15.00
2013,07,20,08,54,15.00
2013,07,20,08,55,15.00
2013,07,20,08,56,15.00
2013,07,20,08,57,15.10
2013,07,20,08,58,15.10
2013,07,20,08,59,15.20
2013,07,20,09,00,15.20
2013,07,20,09,01,15.30
2013,07,20,09,02,15.30
2013,07,20,09,03,15.30
2013,07,20,09,04,15.40
2013,07,20,09,05,15.40
2013,07,20,09,06,15.40
2013,07,20,09,07,15.50
2013,07,20,09,08,15.50
2013,07,20,09,09,15.50
2013,07,20,09,10,15.60
2013,07,20,09,11,15.60
2013,07,20,09,12,15.60
2013,07,20,09,13,15.70
2013,07,20,09,14,15.70
2013,07,20,09,15,15.80
2013,07,20,09,16,15.80
2013,07,20,09,17,15.80
2013,07,20,09,18,15.90
2013,07,20,09,19,15.90
2013,07,20,09,20,16.00
2013,07,20,09,21,16.10
2013,07,20,09,22,16.10
2013,07,20,09,23,16.20
2013,07,20,09,24,16.30
2013,07,20,09,25,16.30
2013,07,20,09,26,16.40
2013,07,20,09,27,16.50
2013,07,20,09,28,16.60
2013,07,20,09,29,16.70
2013,07,20,09,30,16.80
2013,07,20,09,31,16.90
2013,07,20,09,32,17.10
2013,07,20,09,33,17.20
2013,07,20,09,34,17.30
2013,07,20,09,35,17.40
2013,07,20,09,36,17.50
2013,07,20,09,37,17.60
2013,07,20,09,38,17.70
2013,07,20,09,39,17.80
2013,07,20,09,40,17.90
2013,07,20,09,41,18.00
2013,07,20,09,42,18.10
2013,07,20,09,43,18.30
2013,07,20,09,44,18.40
2013,07,20,09,45,18.60
2013,07,20,09,46,18.70
2013,07,20,09,47,18.80
2013,07,20,09,48,18.90
2013,07,20,09,49,19.00
2013,07,20,09,50,19.10
2013,07,20,09,51,19.20
2013,07,20,09,52,19.30
2013,07,20,09,53,19.30
2013,07,20,09,54,19.40
2013,07,20,09,55,19.40
2013,07,20,09,56,19.50
2013,07,20,09,57,19.50
2013,07,20,09,58,19.60
2013,07,20,09,59,19.60
2013,07,20,10,00,19.60
2013,07,20,10,01,19.60
2013,07,20,10,02,19.70
2013,07,20,10,03,19.70
2013,07,20,10,04,19.60
2013,07,20,10,05,19.60
2013,07,20,10,06,19.60
2013,07,20,10,07,19.60
2013,07,20,10,08,19.60
2013,07,20,10,09,19.70
2013,07,20,10,10,19.70
2013,07,20,10,11,19.70
2013,07,20,10,12,19.70
2013,07,20,10,13,19.70
2013,07,20,10,14,19.70
2013,07,20,10,15,19.70
2013,07,20,10,16,19.70
2013,07,20,10,17,19.70
2013,07,20,10,18,19.80
2013,07,20,10,19,19.80
2013,07,20,10,20,19.80
2013,07,20,10,21,19.80
2013,07,20,10,22,19.80
2013,07,20,10,23,19.80
2013,07,20,10,24,19.80
2013,07,20,10,25,19.80
2013,07,20,10,26,19.90
2013,07,20,10,27,19.90
2013,07,20,10,28,20.00
2013,07,20,10,29,20.00
2013,07,20,10,30,20.00
2013,07,20,10,31,20.10
2013,07,20,10,32,20.10
2013,07,20,10,33,20.20
2013,07,20,10,34,20.20
2013,07,20,10,35,20.20
2013,07,20,10,36,20.20
2013,07,20,10,37,20.30
2013,07,20,10,38,20.30
2013,07,20,10,39,20.30
2013,07,20,10,40,20.40
2013,07,20,10,41,20.40
2013,07,20,10,42,20.50
2013,07,20,10,43,20.60
2013,07,20,10,44,20.60
2013,07,20,10,45,20.70
2013,07,20,10,46,20.80
2013,07,20,10,47,20.80
2013,07,20,10,48,20.90
2013,07,20,10,49,21.00
2013,07,20,10,50,21.00
2013,07,20,10,51,21.10
2013,07,20,10,52,21.20
2013,07,20,10,53,21.30
2013,07,20,10,54,21.40
2013,07,20,10,55,21.40
2013,07,20,10,56,21.50
2013,07,20,10,57,21.60
2013,07,20,10,58,21.70
2013,07,20,10,59,21.80
2013,07,20,11,00,21.80
2013,07,20,11,01,21.90
2013,07,20,11,02,22.00
2013,07,20,11,03,22.10
2013,07,20,11,04,22.20
2013,07,20,11,05,22.20
2013,07,20,11,06,22.30
2013,07,20,11,07,22.40
2013,07,20,11,08,22.50
2013,07,20,11,09,22.50
2013,07,20,11,10,22.60
2013,07,20,11,11,22.60
2013,07,20,11,12,22.70
2013,07,20,11,13,22.70
2013,07,20,11,14,22.80
2013,07,20,11,15,22.80
2013,07,20,11,16,22.90
2013,07,20,11,17,22.90
2013,07,20,11,18,22.90
2013,07,20,11,19,22.90
2013,07,20,11,20,23.00
2013,07,20,11,21,23.00
2013,07,20,11,22,23.00
2013,07,20,11,23,23.10
2013,07,20,11,24,23.00
2013,07,20,11,25,23.00
2013,07,20,11,26,22.90
2013,07,20,11,27,22.90
2013,07,20,11,28,22.90
2013,07,20,11,29,22.90
2013,07,20,11,30,22.90
2013,07,20,11,31,22.90
2013,07,20,11,32,22.90
2013,07,20,11,33,22.80
2013,07,20,11,34,22.80
2013,07,20,11,35,22.80
2013,07,20,11,36,22.80
2013,07,20,11,37,22.80
2013,07,20,11,38,22.90
2013,07,20,11,39,22.90
2013,07,20,11,40,22.90
2013,07,20,11,41,22.90
2013,07,20,11,42,23.00
2013,07,20,11,43,23.00
2013,07,20,11,44,23.00
2013,07,20,11,45,23.00
2013,07,20,11,46,23.00
2013,07,20,11,47,23.00
2013,07,20,11,48,23.00
2013,07,20,11,49,23.00
2013,07,20,11,50,23.00
2013,07,20,11,51,23.00
2013,07,20,11,52,23.00
2013,07,20,11,53,23.10
2013,07,20,11,54,23.10
2013,07,20,11,55,23.10
2013,07,20,11,56,23.10
2013,07,20,11,57,23.10
2013,07,20,11,58,23.10
2013,07,20,11,59,23.20
2013,07,20,12,00,23.20
2013,07,20,12,01,23.30
2013,07,20,12,02,23.30
2013,07,20,12,03,23.30
2013,07,20,12,04,23.40
2013,07,20,12,05,23.40
2013,07,20,12,06,23.40
2013,07,20,12,07,23.50
2013,07,20,12,08,23.50
2013,07,20,12,09,23.50
2013,07,20,12,10,23.60
2013,07,20,12,11,23.60
2013,07,20,12,12,23.60
2013,07,20,12,13,23.60
2013,07,20,12,14,23.70
2013,07,20,12,15,23.70
2013,07,20,12,16,23.80
2013,07,20,12,17,23.80
2013,07,20,12,18,23.80
2013,07,20,12,19,23.90
2013,07,20,12,20,23.90
2013,07,20,12,21,23.90
2013,07,20,12,22,23.90
2013,07,20,12,23,23.90
2013,07,20,12,24,23.90
2013,07,20,12,25,23.90
2013,07,20,12,26,23.90
2013,07,20,12,27,23.90
2013,07,20,12,28,23.90
2013,07,20,12,29,23.90
2013,07,20,12,30,23.90
2013,07,20,12,31,23.90
2013,07,20,12,32,24.00
2013,07,20,12,33,24.00
2013,07,20,12,34,24.10
2013,07,20,12,35,24.10
2013,07,20,12,36,24.10
2013,07,20,12,37,24.10
2013,07,20,12,38,24.20
2013,07,20,12,39,24.20
2013,07,20,12,40,24.30
2013,07,20,12,41,24.30
2013,07,20,12,42,24.30
2013,07,20,12,43,24.30
2013,07,20,12,44,24.30
2013,07,20,12,45,24.30
2013,07,20,12,46,24.30
2013,07,20,12,47,24.30
2013,07,20,12,48,24.30
2013,07,20,12,49,24.30
2013,07,20,12,50,24.30
2013,07,20,12,51,24.30
2013,07,20,12,52,24.30
2013,07,20,12,53,24.30
2013,07,20,12,54,24.30
2013,07,20,12,55,24.30
2013,07,20,12,56,24.30
2013,07,20,12,57,24.30
2013,07,20,12,58,24.30
2013,07,20,12,59,24.20
2013,07,20,13,00,24.20
2013,07,20,13,01,24.10
2013,07,20,13,02,24.10
2013,07,20,13,03,24.10
2013,07,20,13,04,24.00
2013,07,20,13,05,24.00
2013,07,20,13,06,24.00
2013,07,20,13,07,23.90
2013,07,20,13,08,23.90
2013,07,20,13,09,23.90
2013,07,20,13,10,23.90
2013,07,20,13,11,23.90
2013,07,20,13,12,23.90
2013,07,20,13,13,23.90
2013,07,20,13,14,23.90
2013,07,20,13,15,23.90
2013,07,20,13,16,23.90
2013,07,20,13,17,23.90
2013,07,20,13,18,23.90
2013,07,20,13,19,23.90
2013,07,20,13,20,23.90
2013,07,20,13,21,23.90
2013,07,20,13,22,23.90
2013,07,20,13,23,23.90
2013,07,20,13,24,23.90
2013,07,20,13,25,23.80
2013,07,20,13,26,23.80
2013,07,20,13,27,23.80
2013,07,20,13,28,23.90
2013,07,20,13,29,23.90
2013,07,20,13,30,23.90
2013,07,20,13,31,23.90
2013,07,20,13,32,24.00
2013,07,20,13,33,24.00
2013,07,20,13,34,24.00
2013,07,20,13,35,24.00
2013,07,20,13,36,24.00
2013,07,20,13,37,24.00
2013,07,20,13,38,24.00
2013,07,20,13,39,24.00
2013,07,20,13,40,24.00
2013,07,20,13,41,24.00
2013,07,20,13,42,23.90
2013,07,20,13,43,23.90
2013,07,20,13,44,23.90
2013,07,20,13,45,23.90
2013,07,20,13,46,23.90
2013,07,20,13,47,23.90
2013,07,20,13,48,24.00
2013,07,20,13,49,23.90
2013,07,20,13,50,23.90
2013,07,20,13,51,23.90
2013,07,20,13,52,23.90
2013,07,20,13,53,24.00
2013,07,20,13,54,24.00
2013,07,20,13,55,24.00
2013,07,20,13,56,24.10
2013,07,20,13,57,24.10
2013,07,20,13,58,24.20
2013,07,20,13,59,24.30
2013,07,20,14,00,24.30
2013,07,20,14,01,24.50
2013,07,20,14,02,24.60
2013,07,20,14,03,24.70
2013,07,20,14,04,24.70
2013,07,20,14,05,24.70
2013,07,20,14,06,24.80
2013,07,20,14,07,24.80
2013,07,20,14,08,24.90
2013,07,20,14,09,24.80
2013,07,20,14,10,24.80
2013,07,20,14,11,24.80
2013,07,20,14,12,24.80
2013,07,20,14,13,24.90
2013,07,20,14,14,24.90
2013,07,20,14,15,25.00
2013,07,20,14,16,25.10
2013,07,20,14,17,25.20
2013,07,20,14,18,25.20
2013,07,20,14,19,25.20
2013,07,20,14,20,25.30
2013,07,20,14,21,25.30
2013,07,20,14,22,25.30
2013,07,20,14,23,25.40
2013,07,20,14,24,25.40
2013,07,20,14,25,25.40
2013,07,20,14,26,25.40
2013,07,20,14,27,25.40
2013,07,20,14,28,25.40
2013,07,20,14,29,25.40
2013,07,20,14,30,25.30
2013,07,20,14,31,25.30
2013,07,20,14,32,25.20
2013,07,20,14,33,25.10
2013,07,20,14,34,25.00
2013,07,20,14,35,25.00
2013,07,20,14,36,25.10
2013,07,20,14,37,25.10
2013,07,20,14,38,25.10
2013,07,20,14,39,25.10
2013,07,20,14,40,25.20
2013,07,20,14,41,25.20
2013,07,20,14,42,25.30
2013,07,20,14,43,25.30
2013,07,20,14,44,25.40
2013,07,20,14,45,25.50
2013,07,20,14,46,25.60
2013,07,20,14,47,25.60
2013,07,20,14,48,25.70
2013,07,20,14,49,25.70
2013,07,20,14,50,25.70
2013,07,20,14,51,25.80
2013,07,20,14,52,25.80
2013,07,20,14,53,25.80
2013,07,20,14,54,25.90
2013,07,20,14,55,25.90
2013,07,20,14,56,25.90
2013,07,20,14,57,25.90
2013,07,20,14,58,26.00
2013,07,20,14,59,26.00
2013,07,20,15,00,26.00
2013,07,20,15,01,26.00
2013,07,20,15,02,26.10
2013,07,20,15,03,26.10
2013,07,20,15,04,26.10
2013,07,20,15,05,26.10
2013,07,20,15,06,26.10
2013,07,20,15,07,26.10
2013,07,20,15,08,26.20
2013,07,20,15,09,26.30
2013,07,20,15,10,26.30
2013,07,20,15,11,26.30
2013,07,20,15,12,26.30
2013,07,20,15,13,26.40
2013,07,20,15,14,26.40
2013,07,20,15,15,26.40
2013,07,20,15,16,26.40
2013,07,20,15,17,26.40
2013,07,20,15,18,26.40
2013,07,20,15,19,26.40
2013,07,20,15,20,26.50
2013,07,20,15,21,26.50
2013,07,20,15,22,26.50
2013,07,20,15,23,26.50
2013,07,20,15,24,26.50
2013,07,20,15,25,26.50
2013,07,20,15,26,26.50
2013,07,20,15,27,26.50
2013,07,20,15,28,26.50
2013,07,20,15,29,26.60
2013,07,20,15,30,26.60
2013,07,20,15,31,26.60
2013,07,20,15,32,26.60
2013,07,20,15,33,26.50
2013,07,20,15,34,26.50
2013,07,20,15,35,26.40
2013,07,20,15,36,26.40
2013,07,20,15,37,26.30
2013,07,20,15,38,26.30
2013,07,20,15,39,26.30
2013,07,20,15,40,26.30
2013,07,20,15,41,26.20
2013,07,20,15,42,26.20
2013,07,20,15,43,26.20
2013,07,20,15,44,26.20
2013,07,20,15,45,26.20
2013,07,20,15,46,26.20
2013,07,20,15,47,26.20
2013,07,20,15,48,26.10
2013,07,20,15,49,26.10
2013,07,20,15,50,26.10
2013,07,20,15,51,26.10
2013,07,20,15,52,26.10
2013,07,20,15,53,26.10
2013,07,20,15,54,26.10
2013,07,20,15,55,26.10
2013,07,20,15,56,26.10
2013,07,20,15,57,26.20
2013,07,20,15,58,26.10
2013,07,20,15,59,26.10
2013,07,20,16,00,25.90
2013,07,20,16,01,25.90
2013,07,20,16,02,25.90
2013,07,20,16,03,25.80
2013,07,20,16,04,25.70
2013,07,20,16,05,25.70
2013,07,20,16,06,25.60
2013,07,20,16,07,25.50
2013,07,20,16,08,25.50
2013,07,20,16,09,25.50
2013,07,20,16,10,25.40
2013,07,20,16,11,25.40
2013,07,20,16,12,25.40
2013,07,20,16,13,25.40
2013,07,20,16,14,25.50
2013,07,20,16,15,25.50
2013,07,20,16,16,25.50
2013,07,20,16,17,25.50
2013,07,20,16,18,25.50
2013,07,20,16,19,25.40
2013,07,20,16,20,25.40
2013,07,20,16,21,25.40
2013,07,20,16,22,25.40
2013,07,20,16,23,25.40
2013,07,20,16,24,25.40
2013,07,20,16,25,25.30
2013,07,20,16,26,25.40
2013,07,20,16,27,25.40
2013,07,20,16,28,25.40
2013,07,20,16,29,25.40
2013,07,20,16,30,25.40
2013,07,20,16,31,25.40
2013,07,20,16,32,25.50
2013,07,20,16,33,25.50
2013,07,20,16,34,25.60
2013,07,20,16,35,25.60
2013,07,20,16,36,25.60
2013,07,20,16,37,25.60
2013,07,20,16,38,25.50
2013,07,20,16,39,25.40
2013,07,20,16,40,25.40
2013,07,20,16,41,25.30
2013,07,20,16,42,25.20
2013,07,20,16,43,25.10
2013,07,20,16,44,25.00
2013,07,20,16,45,24.90
2013,07,20,16,46,24.80
2013,07,20,16,47,24.80
2013,07,20,16,48,24.70
2013,07,20,16,49,24.60
2013,07,20,16,50,24.50
2013,07,20,16,51,24.50
2013,07,20,16,52,24.40
2013,07,20,16,53,24.30
2013,07,20,16,54,24.30
2013,07,20,16,55,24.20
2013,07,20,16,56,24.10
2013,07,20,16,57,24.10
2013,07,20,16,58,24.00
2013,07,20,16,59,23.90
2013,07,20,17,00,23.80
2013,07,20,17,01,23.80
2013,07,20,17,02,23.80
2013,07,20,17,03,23.80
2013,07,20,17,04,23.70
2013,07,20,17,05,23.70
2013,07,20,17,06,23.80
2013,07,20,17,07,23.80
2013,07,20,17,08,23.80
2013,07,20,17,09,23.70
2013,07,20,17,10,23.70
2013,07,20,17,11,23.70
2013,07,20,17,12,23.70
2013,07,20,17,13,23.80
2013,07,20,17,14,23.80
2013,07,20,17,15,23.80
2013,07,20,17,16,23.80
2013,07,20,17,17,23.80
2013,07,20,17,18,23.80
2013,07,20,17,19,23.80